Weather History for St. Joseph, MO

Change the Weather History Date:

Friday, July 12, 2013

  Actual Average Record
Temperature  
Mean Temperature 78 °F 77 °F  
Max Temperature 89 °F 87 °F 103 °F (1954)
Min Temperature 66 °F 67 °F 51 °F (1975)
Degree Days  
Heating Degree Days 0 0  
Month to date heating degree days 0 0  
Since 1 June heating degree days 15 8  
Since 1 July heating degree days 0 0  
Cooling Degree Days 13 12  
Month to date cooling degree days 145 142  
Year to date cooling degree days 546 522  
Since 1 June cooling degree days 420 409  
Growing Degree Days 28 (Base 50)    
Moisture  
Dew Point 61 °F    
Average Humidity 61    
Maximum Humidity 81    
Minimum Humidity 41    
Precipitation  
Precipitation 0.00 in 0.16 in 3.02 in (1963)
Month to date precipitation 0.07 1.79  
Year to date precipitation 16.21 18.92  
Sea Level Pressure  
Sea Level Pressure 30.00 in    
Wind  
Wind Speed 11 mph (SE)    
Max Wind Speed 20 mph    
Max Gust Speed 23 mph    
Visibility 10 miles    
Events      
T = Trace of Precipitation, MM = Missing Value Source: NWS Daily Summary

Daily Weather History Graph

Daily Weather History Graph

Search for Another Location

Airport:

Trip Planner

Search our weather history database for the weather conditions in past years. The results will help you decide how hot, cold, wet, or windy it might be!

Date:

Astronomy

Jul. 12, 2013 Rise Set
Actual Time 6:02 AM CDT 8:48 PM CDT
Civil Twilight 5:30 AM CDT 9:20 PM CDT
Nautical Twilight 4:50 AM CDT 9:59 PM CDT
Astronomical Twilight 4:04 AM CDT 10:45 PM CDT
Moon 10:19 AM CDT (7/12) 10:59 PM CDT (7/12)
Length of Visible Light 15h 49m
Length of Day
14h 46m
Waxing Crescent, 17% of the Moon is Illuminated
Jul 12
Waxing Crescent
Jul 15
First Quarter
Jul 22
Full
Jul 29
Last Quarter
Aug 6
New

Hourly Weather History & Observations

Time (CDT) Temp. Heat Index Dew Point Humidity Pressure Visibility Wind Dir Wind Speed Gust Speed Precip Events Conditions
12:53 AM 72.0 °F - 57.9 °F 61% 30.01 in 10.0 mi SE 8.1 mph - N/A   Clear
1:53 AM 71.1 °F - 57.9 °F 63% 30.01 in 10.0 mi SE 6.9 mph - N/A   Clear
2:53 AM 68.0 °F - 59.0 °F 73% 30.01 in 10.0 mi SSE 5.8 mph - N/A   Clear
3:53 AM 69.1 °F - 59.0 °F 70% 30.01 in 10.0 mi SE 8.1 mph - N/A   Clear
4:53 AM 68.0 °F - 60.1 °F 76% 30.01 in 10.0 mi SE 8.1 mph - N/A   Clear
5:53 AM 66.9 °F - 60.1 °F 79% 30.02 in 10.0 mi SSE 6.9 mph - N/A   Clear
6:42 AM 66.2 °F - 60.8 °F 83% 30.05 in 10.0 mi SE 6.9 mph - N/A   Scattered Clouds
6:53 AM 66.9 °F - 60.1 °F 79% 30.03 in 10.0 mi SE 6.9 mph - N/A   Partly Cloudy
7:53 AM 71.1 °F - 60.1 °F 68% 30.04 in 10.0 mi SE 11.5 mph - N/A   Clear
8:53 AM 73.9 °F - 60.1 °F 62% 30.04 in 10.0 mi SSE 15.0 mph - N/A   Clear
9:53 AM 78.1 °F - 61.0 °F 56% 30.03 in 10.0 mi SSE 12.7 mph - N/A   Clear
10:53 AM 80.1 °F 81.1 °F 61.0 °F 52% 30.03 in 10.0 mi SSE 13.8 mph 19.6 mph N/A   Clear
11:53 AM 82.9 °F 83.7 °F 62.1 °F 49% 30.02 in 10.0 mi SSE 15.0 mph - N/A   Clear
12:53 PM 86.0 °F 86.8 °F 63.0 °F 46% 30.01 in 10.0 mi SE 12.7 mph - N/A   Clear
1:53 PM 87.1 °F 87.8 °F 63.0 °F 44% 30.00 in 10.0 mi ESE 13.8 mph 20.7 mph N/A   Clear
2:53 PM 89.1 °F 90.0 °F 63.0 °F 42% 29.99 in 10.0 mi SE 16.1 mph - N/A   Clear
3:53 PM 89.1 °F 90.0 °F 63.0 °F 42% 29.97 in 10.0 mi SSE 15.0 mph - N/A   Clear
4:53 PM 88.0 °F 88.7 °F 63.0 °F 43% 29.97 in 10.0 mi SSE 13.8 mph 21.9 mph N/A   Clear
5:53 PM 87.1 °F 87.8 °F 63.0 °F 44% 29.96 in 10.0 mi SE 15.0 mph - N/A   Clear
6:53 PM 86.0 °F 86.1 °F 61.0 °F 43% 29.96 in 10.0 mi SE 15.0 mph 20.7 mph N/A   Clear
7:53 PM 84.0 °F 84.0 °F 60.1 °F 44% 29.96 in 10.0 mi SE 10.4 mph - N/A   Clear
8:53 PM 82.0 °F 82.1 °F 59.0 °F 45% 29.96 in 10.0 mi SE 9.2 mph - N/A   Clear
9:53 PM 80.1 °F 80.9 °F 60.1 °F 50% 29.97 in 10.0 mi SE 9.2 mph - N/A   Clear
10:53 PM 78.1 °F - 61.0 °F 56% 29.97 in 10.0 mi SE 9.2 mph - N/A   Clear
11:53 PM 75.9 °F - 61.0 °F 60% 29.97 in 10.0 mi SE 6.9 mph - N/A   Clear